To NAV CANADA Home Page Login to a new session Search on AWWS site Feedback and Comments Disclaimer Vers la page française équivalente Tips FAQ What's new on the site To the Forecasts and Observations / NOTAM section To "File a Flight Plan" website Publications and other links Update of the User's profile FIC Telephone Numbers My Weather Data Folder Route Weather Data Regional Weather Data Local Weather Data To the Forecasts and Observations / NOTAM section
Request Generated 02/09/2016 at 13:33:43 UTC . Weather information available at that time is displayed.

METAR/TAF

MAKKOVIK/NL    

METAR CYFT 091300Z 22009KT 15SM FEW240 M25/M29 A3031 RMK CS1 TR CS
SLP276 DENSITY ALT MISG=
METAR CYFT 091200Z 22007KT 15SM FEW240 M25/M29 A3031 RMK CI1 TR CI
SLP276 DENSITY ALT MISG=
METAR CYFT 091100Z 22009KT 15SM FEW240 M26/M29 A3031 RMK CI1 TR CI
SLP275 DENSITY ALT MISG=

CYFT - No TAF is issued for this station

Your time UTC time
Weather data provided by Environment Canada and NAV CANADA